Regional Weather Roundup
Issued by NWS Spokane, WA

Home | Current Version | Previous Version | Text Only | Print | Product List | Glossary On
Versions: 1 2 3 4 5 6 7 8 9 10 11 12 13 14 15 16 17 18 19 20 21 22 23 24 25 26 27 28 29 30 31 32 33 34 35 36 37 38 39 40 41 42 43 44 45 46 47 48 49 50
307
NZUS01 KOTX 121510
RWROTX

Eastern Washington/Northern Idaho Roundup
National Weather Service, Spokane WA
700 AM PST TUE DEC 12 2017

Note: "fair" indicated few or no clouds below 12,000 feet with no
significant weather and/or obstructions to visibility.

...Northeast Washington and Northern Idaho Panhandle...

CITY           SKY/WX    TMP DP  RH WIND       PRES   REMARKS
Spokane Intl   FRZ DRZL  23  23 100 SW5       30.54F FOG     WCI  17
Spokane Downto CLOUDY    27  25  92 W3        30.57F
Coeur d Alene  CLOUDY    26  25  96 CALM      30.55F FOG
Deer Park      CLOUDY    25  24  96 CALM      30.56F
Sandpoint      CLOUDY    27  25  93 S6        30.56F WCI  20
Bonners Ferry  CLOUDY    23  19  86 CALM      30.53F

...Southeast Washington and southern Idaho Panhandle...

CITY           SKY/WX    TMP DP  RH WIND       PRES   REMARKS
Walla Walla    CLOUDY    28  23  81 E6        30.63S WCI  22
Pullman/Moscow CLOUDY    24  21  88 E6        30.56R WCI  17
Lewiston       CLOUDY    28  24  85 E7        30.62S WCI  21
Lowell           N/A     26  24  92 CALM      30.64F
Grangeville    FAIR      14  14 100 E5        30.48F WCI   6

...Columbia Basin...

CITY           SKY/WX    TMP DP  RH WIND       PRES   REMARKS
Ephrata        CLOUDY    29  20  69 CALM      30.63R
Moses Lake     CLOUDY    29  23  78 CALM      30.64S
Pasco          CLOUDY    32  25  75 SE6       30.69S WCI  26
Richland       CLOUDY    32  28  82 CALM      30.69S
Hermiston      CLOUDY    29  24  82 SE6       30.66F WCI  23
Pendleton      CLOUDY    26  22  84 SW6       30.60F WCI  19

...East Slopes Cascades...

CITY           SKY/WX    TMP DP  RH WIND       PRES   REMARKS
The Dalles     CLOUDY    33  24  69 E5        30.69R WCI  29
Yakima         CLOUDY    31  23  72 CALM      30.64S
Ellensburg     CLOUDY    28  21  75 MISG      30.59S
Stampede Pass  FOG       18  15  88 NE8       30.42S VSB 1/2 WCI   8
Wenatchee      CLOUDY    28  22  78 CALM      30.62S
Omak           CLOUDY    29  27  92 S5        30.61F WCI  24
Sunnyside      CLOUDY    29  26  86 CALM      30.66R

...Southern British Columbia...

CITY           SKY/WX    TMP DP  RH WIND       PRES   REMARKS
Penticton      CLOUDY    32  25  74 S15G22    30.58F WCI  22
Castlegar      CLOUDY    28  21  74 SE3       30.57F
Cranbrook      CLOUDY    16  16 100 W3        30.47S FOG
Osoyoos          N/A     32  25  74 SE3         N/A
Creston          N/A     23  19  86 E2          N/A

...Western Montana...

CITY           SKY/WX    TMP DP  RH WIND       PRES   REMARKS
Kalispell      CLOUDY    22  22 100 W5        30.52R FOG     WCI  16
Libby            N/A     23  19  86 CALM      30.51F
Missoula       CLOUDY    17  14  88 CALM      30.56S FOG

...Neighboring Cities...

CITY           SKY/WX    TMP DP  RH WIND       PRES   REMARKS
Seattle        CLOUDY    36  26  67 NW3       30.44R
Portland       MOCLDY    29  25  85 E5        30.49F WCI  24
Boise          CLOUDY    23  21  92 N5        30.67R WCI  17
Great Falls    CLOUDY    43   4  19 SW17      30.15F
Calgary        MOCLDY    54   9  16 W22G32    29.99R



USA.gov is the U.S. government's official web portal to all federal, state and local government web resources and services.